Akron, CO

2:00 AM MDT on September 28, 2016 (GMT -0600)
Akron-Washington County

Weather History for KAKO - October, 2013

Change the Weather History Date:

Saturday, October 5, 2013

  Actual Average Record
Temperature  
Mean Temperature 41 °F 54 °F  
Max Temperature 53 °F 68 °F 90 °F (1947)
Min Temperature 28 °F 41 °F 26 °F (1952)
Degree Days  
Heating Degree Days 24    
Month to date heating degree days 71  
Cooling Degree Days 0    
Month to date cooling degree days 0  
Moisture  
Dew Point 22 °F    
Average Humidity 53    
Maximum Humidity 85    
Minimum Humidity 21    
Precipitation  
Precipitation 0.00 in 0.04 in 0.85 in (1951)
Month to date precipitation 0.09 0.21  
Year to date precipitation 15.80 14.86  
Sea Level Pressure  
Sea Level Pressure 30.17 in    
Wind  
Wind Speed 23 mph (NW)    
Max Wind Speed 40 mph    
Max Gust Speed 51 mph    
Visibility 10 miles    
Events      
T = Trace of Precipitation, MM = Missing Value Source: NWS Daily Summary

Daily Weather History Graph

Daily Weather History Graph

Search for Another Location

Airport or City:

Trip Planner

Search our weather history database for the weather conditions in past years. The results will help you decide how hot, cold, wet, or windy it might be!

Date:

Astronomy

Oct. 05, 2013 Rise Set
Actual Time 6:53 AM MDT 6:28 PM MDT
Civil Twilight 6:26 AM MDT 6:55 PM MDT
Nautical Twilight 5:54 AM MDT 7:26 PM MDT
Astronomical Twilight 5:23 AM MDT 7:58 PM MDT
Moon 7:35 AM MDT (10/5) 6:48 PM MDT (10/5)
Length of Visible Light 12h 28m
Length of Day
11h 34m
New Moon, 1% of the Moon is Illuminated
Oct 5
New Moon
Oct 11
First Quarter
Oct 18
Full
Oct 26
Last Quarter
Nov 3
New

Hourly Weather History & Observations

Time (MDT) Temp. Windchill Dew Point Humidity Pressure Visibility Wind Dir Wind Speed Gust Speed Precip Events Conditions
12:53 AM 28.9 °F 16.1 °F 25.0 °F 85% 30.19 in 10.0 mi NW 19.6 mph 25.3 mph N/A   Clear
1:53 AM 30.0 °F 16.6 °F 24.1 °F 79% 30.18 in 10.0 mi WNW 23.0 mph 29.9 mph N/A   Clear
2:53 AM 30.9 °F 17.8 °F 23.0 °F 72% 30.17 in 10.0 mi WNW 23.0 mph 28.8 mph N/A   Overcast
3:53 AM 34.0 °F 21.5 °F 23.0 °F 64% 30.17 in 10.0 mi NW 24.2 mph 31.1 mph N/A   Overcast
4:53 AM 34.0 °F 22.1 °F 23.0 °F 64% 30.16 in 10.0 mi WNW 21.9 mph 32.2 mph N/A   Overcast
5:53 AM 35.1 °F 22.0 °F 23.0 °F 61% 30.17 in 10.0 mi NW 28.8 mph 38.0 mph N/A   Overcast
6:53 AM 35.1 °F 23.3 °F 23.0 °F 61% 30.19 in 10.0 mi NW 23.0 mph 34.5 mph N/A   Overcast
7:53 AM 36.0 °F 26.0 °F 24.1 °F 62% 30.20 in 10.0 mi NW 17.3 mph 23.0 mph N/A   Overcast
8:53 AM 37.9 °F 27.3 °F 25.0 °F 60% 30.21 in 10.0 mi NW 21.9 mph 29.9 mph N/A   Overcast
9:53 AM 37.9 °F 27.3 °F 23.0 °F 55% 30.24 in 10.0 mi NW 21.9 mph 31.1 mph N/A   Overcast
10:53 AM 46.0 °F 36.9 °F 23.0 °F 40% 30.19 in 10.0 mi NW 28.8 mph 40.3 mph N/A   Mostly Cloudy
11:53 AM 46.9 °F - 19.9 °F 34% 30.18 in 10.0 mi NW 33.4 mph 47.2 mph N/A   Clear
12:53 PM 48.9 °F - 19.0 °F 31% 30.16 in 10.0 mi NW 34.5 mph 44.9 mph N/A   Clear
1:53 PM 50.0 °F - 17.1 °F 27% 30.12 in 10.0 mi NNW 28.8 mph 42.6 mph N/A   Clear
2:53 PM 52.0 °F - 12.9 °F 21% 30.11 in 10.0 mi NNW 29.9 mph 48.3 mph N/A   Clear
3:53 PM 52.0 °F - 16.0 °F 24% 30.10 in 10.0 mi NW 31.1 mph 42.6 mph N/A   Clear
4:53 PM 50.0 °F - 17.1 °F 27% 30.12 in 10.0 mi NNW 29.9 mph 39.1 mph N/A   Clear
5:53 PM 46.9 °F - 21.0 °F 36% 30.13 in 10.0 mi NNW 24.2 mph 33.4 mph N/A   Clear
6:53 PM 41.0 °F 34.3 °F 25.0 °F 53% 30.17 in 10.0 mi NNW 11.5 mph - N/A   Clear
7:53 PM 36.0 °F 29.6 °F 25.0 °F 64% 30.19 in 10.0 mi NNW 8.1 mph - N/A   Clear
8:53 PM 37.0 °F 28.1 °F 25.0 °F 62% 30.18 in 10.0 mi NNW 15.0 mph - N/A   Clear
9:53 PM 41.0 °F 31.4 °F 21.0 °F 45% 30.19 in 10.0 mi NW 21.9 mph - N/A   Clear
10:53 PM 42.1 °F 33.1 °F 21.0 °F 43% 30.16 in 10.0 mi NW 20.7 mph 28.8 mph N/A   Clear
11:53 PM 43.0 °F 34.2 °F 21.9 °F 43% 30.16 in 10.0 mi WNW 20.7 mph 28.8 mph N/A   Clear